カタログに戻る

BREEZE-M R/B

運用中HEO
NORAD 28869·ROCKET BODY·🇷🇺 Russia

打ち上げ Sep 8, 2005 から Baikonur Cosmodrome

Loading…

次のパス (今後24時間)

TLE

最新Source: Space-Track

元期: Sep 9, 2026, 06:34 UTC

1 28869U 05036B   26252.27415056 -.00000265  00000-0  00000-0 0  9998
2 28869   9.1434 159.7876 6281911 236.2214  47.9621  2.10741236161662

AllMySatでBREEZE-M R/Bをリアルタイム追跡

Download on the App Store